STARLINK-34098, 64080

Orbit data source: Space-Track

STARLINK-34098, 64080 is a payload satellite owned by SpaceX/Seattle (US) in LEO that was launched on Wed, 21 May 2025 UTC via an FALCON 9 launch vehicle from the Air Force Eastern Test Range (AFETR). Payload-class satellites include a variety of spacecraft equipped with specific instruments for various scientific and technological missions. These include communications satellites like Starlink; space stations such as the ISS; scientific satellites like the Hubble; Earth observation satellites from companies like Planet Labs, Umbra, and HawkEye 360; GPS; miniature CubeSats for education and research; and military/defense satellites.

Loading next visibility...
Identifier
64080, 2025-107S
Orbit
LEO
Country
Flag of USUS
Related business
Manufacturer
SpaceX/Seattle
Mission
Operational Commercial Communications
Bus & Motor
STARLINK V2MO, Unknown motor
Mass
575 kg wet, ~530 kg dry
Launch date (UTC)
2025-05-21 (1 year ago)
Launch vehicle
FALCON 9
Launch site
Air Force Eastern Test Range (AFETR)
Object type
Payload
Rocket body
Debris
Shape & HBR
Box + 2 Pan, 17.7 m
Radar Cross Section
36.964 m², Large (>1 m²)

Expand to show TLE details & history
Last TLE update: 1 day ago

TLE from 1 day ago
0 STARLINK-34098
1 64080U 25107S   26170.50264591  .00025128  00000-0  91913-3 0  9995
2 64080  43.0031 346.3699 0002163 279.0380  81.0227 15.27593670 61699
Epoch: 2026-06-19T12:03Z
TLE epoch observation values (Epoch: 2026-06-19T12:03:48.606Z)
Latitude
-0.00001°
Longitude
-102.31334°
Altitude
482.553 km
Speed
7.626 km/s
True Right ascension
23h 05m 28s
True Declination
0° 00' 00"
Sunlit
Object was in daylight at epoch
Visualization orbit readout
Latitude
Unknown
Longitude
Unknown
Altitude
Unknown
Speed
Unknown
Apparent Right ascension
Unknown
Apparent Declination
Unknown
Sunlit
N/A
Visualization observer readout
Local Sidereal Time
07:18:54
Azimuth
Unknown
Elevation
Unknown
Doppler factor
Unknown
Orbital elements
Apogee altitude
486.437 km
Perigee altitude
483.468 km
Semi-major axis
6,863.09 km
Eccentricity
0.00022
Inclination
43.0031°
RAAN
346.3699°
Arg. of periapsis
279.038°
True anomaly
81.04718°
Mean anomaly
81.0227°
Eccentric anomaly
81.03494°
Mean motion
3.81736 °/min
Orbital period
94.31 mins
BSTAR
0.00091913
Loading maneuver chart data...
Computing Atmospheric mass density...
Loading historical data...
Loading historical data...
Loading historical data...
Loading historical data...
Loading historical data...
Loading historical data...
Loading historical data...

Documentation

Showing up to 5 results
|